CW9825 Weather Reports


time (UTC)temp
C
wind
direction
speed
KPH
gust
KPH
rain 1hr
cm
rain 24hr
cm
rain mn
cm
humidity
%
barometer
mb
20260502223512 21 196 8.0 30.6 0.00 0.00 0.00 29 1004.9
20260502223010 21 193 6.4 30.6 0.00 0.00 0.00 29 1005.0
20260502222510 21 205 17.7 30.6 0.00 0.00 0.00 28 1005.1
20260502222010 21 213 11.3 33.8 0.00 0.00 0.00 28 1005.2
20260502221510 21 202 16.1 33.8 0.00 0.00 0.00 28 1005.4
20260502221008 21 221 11.3 29.0 0.00 0.00 0.00 28 1005.6
20260502220507 21 216 12.9 27.4 0.00 0.00 0.00 27 1005.6
20260502220012 21 198 12.9 25.7 0.00 0.00 0.00 28 1005.8
20260502215507 20 219 11.3 30.6 0.00 0.00 0.00 29 1005.8
20260502215004 20 202 12.9 30.6 0.00 0.00 0.00 29 1006.0
20260502214504 20 217 11.3 22.5 0.00 0.00 0.00 29 1006.1
20260502214003 20 219 9.7 24.1 0.00 0.00 0.00 29 1006.2
20260502213503 20 196 9.7 24.1 0.00 0.00 0.00 30 1006.4
20260502213004 20 176 6.4 19.3 0.00 0.00 0.00 31 1006.5
20260502212501 20 190 11.3 19.3 0.00 0.00 0.00 30 1006.6
20260502212001 19 208 9.7 25.7 0.00 0.00 0.00 32 1006.7
20260502211600 19 214 11.3 27.4 0.00 0.00 0.00 31 1006.9
20260502211059 20 168 12.9 27.4 0.00 0.00 0.00 31 1006.9
20260502210559 20 192 8.0 16.1 0.00 0.00 0.00 31 1007.1
20260502210058 19 271 6.4 16.1 0.00 0.00 0.00 31 1007.2
20260502205558 19 300 8.0 19.3 0.00 0.00 0.00 31 1007.5
20260502205056 19 194 6.4 19.3 0.00 0.00 0.00 31 1007.6
20260502204602 19 246 6.4 25.7 0.00 0.00 0.00 31 1007.8
20260502204055 19 248 8.0 25.7 0.00 0.00 0.00 31 1007.6
20260502203554 19 242 4.8 17.7 0.00 0.00 0.00 31 1007.8
20260502203118 19 169 8.0 19.3 0.00 0.00 0.00 32 1008.1
20260502202553 19 182 4.8 17.7 0.00 0.00 0.00 32 1008.3
20260502202056 18 178 4.8 17.7 0.00 0.00 0.00 32 1008.4
20260502201603 18 22 6.4 24.1 0.00 0.00 0.00 33 1008.6
20260502201054 18 355 0.0 38.6 0.00 0.00 0.00 33 1008.7
20260502200551 18 281 14.5 38.6 0.00 0.00 0.00 32 1009.3
20260502200059 19 269 6.4 19.3 0.00 0.00 0.00 29 1008.9
20260502195550 19 240 8.0 27.4 0.00 0.00 0.00 30 1008.8
20260502195050 19 278 14.5 32.2 0.00 0.00 0.00 32 1008.8
20260502194555 19 275 8.0 32.2 0.00 0.00 0.00 32 1008.9
20260502194051 20 286 14.5 32.2 0.00 0.00 0.00 32 1009.1
20260502193551 20 253 8.0 30.6 0.00 0.00 0.00 30 1009.1
20260502193100 20 292 12.9 30.6 0.00 0.00 0.00 29 1009.1
20260502192549 20 244 12.9 25.7 0.00 0.00 0.00 29 1009.1
20260502192047 20 250 12.9 33.8 0.00 0.00 0.00 29 1009.1
20260502191550 21 221 9.7 33.8 0.00 0.00 0.00 29 1009.1
20260502191048 21 286 6.4 32.2 0.00 0.00 0.00 29 1009.0
20260502190547 21 268 9.7 32.2 0.00 0.00 0.00 29 1009.2
20260502190048 20 200 8.0 33.8 0.00 0.00 0.00 29 1009.1
20260502185546 20 329 9.7 40.2 0.00 0.00 0.00 29 1009.1
20260502185045 20 273 12.9 40.2 0.00 0.00 0.00 29 1009.3
20260502184554 20 269 8.0 24.1 0.00 0.00 0.00 30 1009.3
20260502184045 20 84 8.0 32.2 0.00 0.00 0.00 29 1009.3
20260502183545 20 287 12.9 32.2 0.00 0.00 0.00 30 1009.2
20260502183044 21 209 11.3 33.8 0.00 0.00 0.00 29 1009.3
20260502182541 21 259 16.1 33.8 0.00 0.00 0.00 30 1009.4
20260502182041 21 283 9.7 25.7 0.00 0.00 0.00 30 1009.6
20260502181544 21 271 9.7 22.5 0.00 0.00 0.00 30 1009.5
20260502181041 21 212 9.7 30.6 0.00 0.00 0.00 30 1009.7
20260502180540 20 282 8.0 30.6 0.00 0.00 0.00 31 1009.6
20260502164023 19 238 8.0 19.3 0.00 0.00 0.00 39 1011.0
20260502163522 19 289 8.0 19.3 0.00 0.00 0.00 41 1011.1
20260502163021 18 266 3.2 17.7 0.00 0.00 0.00 44 1011.1
20260502162519 18 198 6.4 16.1 0.00 0.00 0.00 44 1011.2
20260502162016 17 218 1.6 19.3 0.00 0.00 0.00 45 1011.3
20260502161515 17 271 4.8 19.3 0.00 0.00 0.00 46 1011.5
20260502161014 16 269 3.2 16.1 0.00 0.00 0.00 47 1011.5
20260502160513 16 246 3.2 19.3 0.00 0.00 0.00 47 1011.6
20260502152102 13 301 3.2 19.3 0.00 0.00 0.00 51 1012.4
20260502151613 13 181 11.3 24.1 0.00 0.00 0.00 51 1012.5
20260502151057 13 210 6.4 24.1 0.00 0.00 0.00 53 1012.5
20260502150556 12 169 4.8 19.3 0.00 0.00 0.00 52 1012.6
20260502130524 6 188 9.7 22.5 0.00 0.00 0.00 66 1014.1
20260502123518 3 181 3.2 8.0 0.00 0.00 0.00 77 1014.5
20260502123017 3 178 1.6 4.8 0.00 0.00 0.00 77 1014.5
20260502122515 2 179 1.6 8.0 0.00 0.00 0.00 77 1014.6
20260502122019 2 180 3.2 8.0 0.00 0.00 0.00 77 1014.8
20260502121515 2 176 3.2 8.0 0.00 0.00 0.00 77 1014.6
20260502121014 2 170 1.6 8.0 0.00 0.00 0.00 77 1014.6
20260502120518 2 165 3.2 9.7 0.00 0.00 0.00 77 1014.7
20260502115515 2 163 6.4 11.3 0.00 0.00 0.00 77 1014.7
20260502115011 1 180 4.8 9.7 0.00 0.00 0.00 78 1014.9
20260502114509 1 173 4.8 9.7 0.00 0.00 0.00 78 1014.9
20260502114012 1 160 4.8 11.3 0.00 0.00 0.00 78 1014.7
20260502113508 1 178 3.2 8.0 0.00 0.00 0.00 78 1015.0
20260502113007 1 177 3.2 8.0 0.00 0.00 0.00 78 1014.9
20260502112505 1 168 6.4 11.3 0.00 0.00 0.00 78 1014.9
20260502112005 1 168 4.8 11.3 0.00 0.00 0.00 78 1014.9
20260502111503 1 168 1.6 8.0 0.00 0.00 0.00 77 1014.9
20260502111003 1 169 3.2 11.3 0.00 0.00 0.00 77 1015.0
20260502110501 1 161 6.4 11.3 0.00 0.00 0.00 77 1015.1
20260502110100 1 165 6.4 11.3 0.00 0.00 0.00 77 1015.1
20260502105559 1 158 3.2 9.7 0.00 0.00 0.00 77 1015.1
20260502105058 1 160 1.6 9.7 0.00 0.00 0.00 76 1015.2
20260502104608 1 175 3.2 6.4 0.00 0.00 0.00 76 1015.3
20260502104056 1 175 3.2 6.4 0.00 0.00 0.00 76 1015.3
20260502103556 1 175 1.6 4.8 0.00 0.00 0.00 76 1015.3
20260502103056 1 175 1.6 8.0 0.00 0.00 0.00 76 1015.4
20260502102557 1 175 1.6 8.0 0.00 0.00 0.00 75 1015.4
20260502102053 1 168 6.4 9.7 0.00 0.00 0.00 75 1015.4
20260502101607 1 163 3.2 9.7 0.00 0.00 0.00 75 1015.6
20260502101051 1 163 1.6 8.0 0.00 0.00 0.00 75 1015.7
20260502100551 1 163 1.6 8.0 0.00 0.00 0.00 75 1015.8
20260502091045 1 165 1.6 3.2 0.00 0.00 0.00 72 1016.3
20260502090546 1 165 1.6 8.0 0.00 0.00 0.00 72 1016.3
20260502071524 2 164 3.2 6.4 0.00 0.00 0.00 63 1017.1
20260502071023 2 164 0.0 4.8 0.00 0.00 0.00 63 1017.2
20260502070522 2 164 0.0 4.8 0.00 0.00 0.00 63 1017.3
20260502070037 2 164 1.6 8.0 0.00 0.00 0.00 62 1017.2
20260502065521 3 164 0.0 8.0 0.00 0.00 0.00 61 1017.3
20260502065022 3 164 3.2 8.0 0.00 0.00 0.00 60 1017.4
20260502064519 3 164 3.2 8.0 0.00 0.00 0.00 60 1017.5
20260502064018 3 161 1.6 8.0 0.00 0.00 0.00 59 1017.5
20260502063520 3 161 4.8 8.0 0.00 0.00 0.00 59 1017.5
20260502063021 3 161 3.2 6.4 0.00 0.00 0.00 59 1017.6
20260502062516 3 161 3.2 6.4 0.00 0.00 0.00 59 1017.6
20260502062014 3 161 1.6 4.8 0.00 0.00 0.00 58 1017.5
20260502061516 3 161 0.0 4.8 0.00 0.00 0.00 58 1017.6
20260502061012 3 161 0.0 4.8 0.00 0.00 0.00 57 1017.5
20260502060512 3 161 1.6 4.8 0.00 0.00 0.00 57 1017.6
20260502060025 3 161 1.6 6.4 0.00 0.00 0.00 57 1017.6
20260502055511 3 161 0.0 4.8 0.00 0.00 0.00 57 1017.6
20260502055011 3 161 1.6 3.2 0.00 0.00 0.00 57 1017.6
20260502054507 4 161 0.0 3.2 0.00 0.00 0.00 57 1017.6
20260502054006 4 161 0.0 3.2 0.00 0.00 0.00 56 1017.6
20260502053505 4 161 0.0 1.6 0.00 0.00 0.00 56 1017.6
20260502053005 4 161 0.0 4.8 0.00 0.00 0.00 56 1017.6
20260502052509 5 161 0.0 8.0 0.00 0.00 0.00 55 1017.7
20260502052003 5 161 3.2 8.0 0.00 0.00 0.00 55 1017.7
20260502051502 5 159 0.0 3.2 0.00 0.00 0.00 56 1017.6
20260502051003 5 159 0.0 4.8 0.00 0.00 0.00 55 1017.7
20260502050501 5 159 1.6 4.8 0.00 0.00 0.00 55 1017.7
20260502050104 5 159 1.6 4.8 0.00 0.00 0.00 56 1017.7
20260502045601 5 159 0.0 3.2 0.00 0.00 0.00 56 1017.8
20260502045058 5 159 0.0 3.2 0.00 0.00 0.00 56 1017.7
20260502044558 5 159 0.0 4.8 0.00 0.00 0.00 55 1017.8
20260502044058 5 159 0.0 4.8 0.00 0.00 0.00 54 1017.7
20260502043558 5 159 0.0 9.7 0.00 0.00 0.00 54 1017.9
20260502043112 5 160 3.2 9.7 0.00 0.00 0.00 55 1017.9
20260502042600 5 143 0.0 3.2 0.00 0.00 0.00 55 1017.9
20260502042058 5 143 0.0 3.2 0.00 0.00 0.00 54 1017.9
20260502041624 5 143 0.0 4.8 0.00 0.00 0.00 54 1017.9
20260502041059 6 143 1.6 4.8 0.00 0.00 0.00 53 1018.0
20260502040556 6 143 1.6 4.8 0.00 0.00 0.00 53 1018.1
20260502040100 6 143 3.2 4.8 0.00 0.00 0.00 52 1017.9
20260502035557 6 143 0.0 6.4 0.00 0.00 0.00 51 1018.0
20260502035057 6 143 3.2 6.4 0.00 0.00 0.00 50 1018.1
20260502034557 7 97 0.0 4.8 0.00 0.00 0.00 50 1018.1
20260502034057 7 81 1.6 4.8 0.00 0.00 0.00 49 1018.1
20260502033556 7 68 0.0 3.2 0.00 0.00 0.00 47 1018.1
20260502033056 7 68 1.6 3.2 0.00 0.00 0.00 47 1018.1
20260502032556 8 68 0.0 0.0 0.00 0.00 0.00 45 1018.0
20260502032055 8 68 0.0 0.0 0.00 0.00 0.00 44 1018.1
20260502031555 8 67 0.0 3.2 0.00 0.00 0.00 43 1018.1
20260502031055 8 66 0.0 4.8 0.00 0.00 0.00 43 1018.1
20260502030554 9 66 1.6 4.8 0.00 0.00 0.00 42 1018.1
20260502030116 9 61 1.6 4.8 0.00 0.00 0.00 41 1018.1
20260502025554 9 61 1.6 4.8 0.00 0.00 0.00 41 1018.1
20260502025054 9 61 1.6 4.8 0.00 0.00 0.00 41 1018.1
20260502024604 9 61 1.6 4.8 0.00 0.00 0.00 41 1018.1
20260502024054 9 61 0.0 3.2 0.00 0.00 0.00 40 1018.1
20260502023555 10 61 0.0 3.2 0.00 0.00 0.00 40 1018.1
20260502023127 10 61 0.0 1.6 0.00 0.00 0.00 40 1018.1
20260502022557 10 62 0.0 3.2 0.00 0.00 0.00 39 1018.1
20260502022054 10 62 0.0 3.2 0.00 0.00 0.00 39 1018.1
20260502021553 10 62 0.0 4.8 0.00 0.00 0.00 39 1018.0
20260502021054 10 62 1.6 4.8 0.00 0.00 0.00 38 1018.0
20260502020553 10 33 1.6 6.4 0.00 0.00 0.00 38 1017.9
20260502020057 10 29 1.6 6.4 0.00 0.00 0.00 37 1018.0
20260502015556 11 26 1.6 8.0 0.00 0.00 0.00 37 1018.1
20260502015053 11 26 3.2 9.7 0.00 0.00 0.00 37 1018.1
20260502014604 11 27 4.8 9.7 0.00 0.00 0.00 36 1018.0
20260502014052 11 335 1.6 4.8 0.00 0.00 0.00 36 1018.0
20260502013552 11 333 3.2 6.4 0.00 0.00 0.00 35 1018.0
20260502013100 11 331 3.2 6.4 0.00 0.00 0.00 35 1018.0
20260502012552 11 317 3.2 6.4 0.00 0.00 0.00 35 1018.0
20260502012052 11 12 3.2 6.4 0.00 0.00 0.00 34 1018.0
20260502011605 11 13 1.6 6.4 0.00 0.00 0.00 34 1017.9
20260502011051 11 330 1.6 9.7 0.00 0.00 0.00 34 1017.9
20260502010551 12 338 3.2 9.7 0.00 0.00 0.00 34 1017.8
20260502010051 12 318 1.6 14.5 0.00 0.00 0.00 34 1017.8
20260502005551 12 346 4.8 16.1 0.00 0.00 0.00 34 1017.9
20260502005051 12 287 4.8 16.1 0.00 0.00 0.00 34 1017.8
20260502004551 12 284 4.8 16.1 0.00 0.00 0.00 33 1017.8
20260502004051 12 319 9.7 16.1 0.00 0.00 0.00 33 1017.9
20260502003550 12 347 4.8 16.1 0.00 0.00 0.00 33 1017.8
20260502003050 12 340 4.8 16.1 0.00 0.00 0.00 33 1017.8
20260502002550 12 254 4.8 14.5 0.00 0.00 0.00 32 1017.8
20260502002050 12 300 3.2 12.9 0.00 0.00 0.00 33 1017.8
20260502001558 13 302 3.2 12.9 0.00 0.00 0.00 34 1017.9
20260502001049 13 306 1.6 14.5 0.00 0.00 0.00 34 1017.9
20260502000549 13 325 8.0 17.7 0.00 0.00 0.00 33 1017.9
20260502000100 13 277 9.7 16.1 0.00 0.00 0.00 33 1017.9
20260501235550 12 331 3.2 14.5 0.00 0.00 0.00 32 1017.9
20260501235048 13 298 8.0 16.1 0.00 0.00 0.00 33 1018.1
20260501234548 13 242 4.8 16.1 0.00 0.00 0.00 34 1018.2
20260501234048 13 325 6.4 14.5 0.00 0.00 0.00 34 1018.2
20260501233548 13 331 1.6 14.5 0.00 0.00 0.00 34 1018.2
20260501233102 12 355 3.2 14.5 0.00 0.00 0.00 34 1018.2
20260501232546 12 283 9.7 16.1 0.00 0.00 0.00 34 1018.1
20260501232046 12 282 9.7 16.1 0.00 0.00 0.00 34 1018.1
20260501231600 12 277 6.4 12.9 0.00 0.00 0.00 35 1018.1
20260501231045 12 264 6.4 16.1 0.00 0.00 0.00 35 1018.1
20260501230545 12 312 6.4 25.7 0.00 0.00 0.00 35 1018.2
20260501230113 13 270 11.3 25.7 0.00 0.00 0.00 34 1018.2
20260501225546 13 336 9.7 16.1 0.00 0.00 0.00 34 1018.3
20260501225045 12 263 3.2 12.9 0.00 0.00 0.00 37 1018.2
20260501224556 12 47 0.0 9.7 0.00 0.00 0.00 35 1018.2
20260501224042 12 38 3.2 9.7 0.00 0.00 0.00 36 1018.2